| time (UTC) | temp F | wind direction | speed MPH | gust MPH | rain 1hr in | rain 24hr in | rain mn in | humidity % | barometer mb |
| 20260504234545 | 47 | 9 | 0.0 | 5.0 | 0.00 | 0.00 | 0.00 | 100 | 995.9 |
| 20260504233040 | 47 | 272 | 4.0 | 10.0 | 0.00 | 0.00 | 0.00 | 100 | 995.9 |
| 20260504231520 | 46 | 348 | 2.0 | 11.0 | 0.00 | 0.00 | 0.00 | 100 | 995.7 |
| 20260504230017 | 46 | 250 | 0.0 | 9.0 | 0.00 | 0.00 | 0.00 | 100 | 995.0 |
| 20260504224517 | 46 | 163 | 1.0 | 5.0 | 0.00 | 0.00 | 0.00 | 100 | 994.8 |
| 20260504223010 | 46 | 13 | 0.0 | 4.0 | 0.00 | 0.09 | 0.00 | 100 | 994.7 |
| 20260504221503 | 46 | 360 | 0.0 | 0.0 | 0.00 | 0.09 | 0.00 | 100 | 994.5 |
| 20260504214556 | 47 | 313 | 0.0 | 17.0 | 0.00 | 0.09 | 0.00 | 20 | 994.3 |
| 20260504213055 | 47 | 271 | 6.0 | 13.0 | 0.00 | 0.09 | 0.00 | 18 | 994.3 |
| 20260504211538 | 48 | 252 | 3.0 | 13.0 | 0.00 | 0.09 | 0.00 | 37 | 993.5 |
| 20260504210025 | 56 | 217 | 2.0 | 23.0 | 0.00 | 0.09 | 0.00 | 52 | 992.5 |
| 20260504204519 | 55 | 213 | 3.0 | 17.0 | 0.00 | 0.09 | 0.00 | 53 | 992.4 |
| 20260504203015 | 56 | 248 | 3.0 | 17.0 | 0.00 | 0.09 | 0.00 | 52 | 992.5 |
| 20260504201510 | 57 | 228 | 4.0 | 22.0 | 0.00 | 0.09 | 0.00 | 50 | 992.5 |
| 20260504200007 | 59 | 273 | 4.0 | 15.0 | 0.00 | 0.09 | 0.00 | 48 | 992.4 |
| 20260504194503 | 58 | 224 | 5.0 | 20.0 | 0.00 | 0.09 | 0.00 | 48 | 992.4 |
| 20260504193108 | 59 | 72 | 6.0 | 23.0 | 0.00 | 0.09 | 0.00 | 47 | 992.3 |
| 20260504191553 | 60 | 210 | 3.0 | 16.0 | 0.00 | 0.09 | 0.00 | 46 | 992.4 |
| 20260504190044 | 60 | 187 | 2.0 | 19.0 | 0.00 | 0.09 | 0.00 | 46 | 992.7 |
| 20260504184544 | 58 | 175 | 4.0 | 24.0 | 0.00 | 0.09 | 0.00 | 48 | 992.4 |
| 20260504183028 | 58 | 248 | 3.0 | 18.0 | 0.00 | 0.10 | 0.00 | 47 | 992.7 |
| 20260504181524 | 57 | 233 | 6.0 | 15.0 | 0.00 | 0.10 | 0.00 | 48 | 992.4 |
| 20260504180021 | 57 | 243 | 4.0 | 23.0 | 0.00 | 0.10 | 0.00 | 49 | 992.9 |
| 20260504174515 | 56 | 160 | 7.0 | 21.0 | 0.00 | 0.10 | 0.00 | 50 | 992.9 |
| 20260504173010 | 56 | 214 | 6.0 | 18.0 | 0.00 | 0.10 | 0.00 | 49 | 992.9 |
| 20260504171554 | 58 | 186 | 6.0 | 22.0 | 0.00 | 0.10 | 0.00 | 47 | 992.9 |
| 20260504081550 | 40 | 192 | 0.0 | 4.0 | 0.00 | 0.13 | 0.13 | 100 | 1000.4 |
| 20260504070106 | 38 | 90 | 0.0 | 0.0 | 0.00 | 0.13 | 0.13 | 100 | 1001.5 |
| 20260504050006 | 43 | 196 | 0.0 | 0.0 | 0.00 | 0.13 | 0.13 | 100 | 1003.0 |
| 20260504044504 | 43 | 217 | 0.0 | 4.0 | 0.00 | 0.13 | 0.13 | 100 | 1002.9 |
| 20260504043047 | 44 | 190 | 0.0 | 4.0 | 0.00 | 0.13 | 0.13 | 100 | 1002.8 |
| 20260504041539 | 44 | 210 | 0.0 | 8.0 | 0.00 | 0.13 | 0.13 | 100 | 1002.9 |
| 20260504040038 | 44 | 221 | 0.0 | 9.0 | 0.00 | 0.13 | 0.13 | 100 | 1003.1 |
| 20260504034531 | 43 | 182 | 1.0 | 6.0 | 0.00 | 0.13 | 0.13 | 100 | 1003.3 |
| 20260504033027 | 43 | 236 | 0.0 | 6.0 | 0.00 | 0.13 | 0.13 | 100 | 1003.5 |
| 20260504031522 | 43 | 224 | 0.0 | 8.0 | 0.00 | 0.13 | 0.13 | 100 | 1003.7 |
| 20260504030017 | 44 | 233 | 0.0 | 9.0 | 0.00 | 0.13 | 0.13 | 100 | 1003.9 |
| 20260504024514 | 44 | 198 | 0.0 | 6.0 | 0.00 | 0.13 | 0.13 | 100 | 1004.1 |
| 20260504023057 | 44 | 227 | 0.0 | 7.0 | 0.00 | 0.13 | 0.13 | 100 | 1004.3 |
| 20260504021553 | 45 | 252 | 0.0 | 4.0 | 0.00 | 0.13 | 0.13 | 100 | 1004.4 |
| 20260504020105 | 45 | 192 | 0.0 | 0.0 | 0.00 | 0.13 | 0.13 | 100 | 1004.3 |
| 20260504014545 | 46 | 239 | 0.0 | 0.0 | 0.00 | 0.13 | 0.13 | 100 | 1004.0 |
| 20260504013042 | 47 | 202 | 0.0 | 7.0 | 0.00 | 0.13 | 0.13 | 100 | 1003.7 |
| 20260504011540 | 47 | 226 | 0.0 | 7.0 | 0.00 | 0.13 | 0.13 | 100 | 1003.4 |
| 20260504010030 | 47 | 128 | 0.0 | 9.0 | 0.00 | 0.13 | 0.13 | 100 | 1003.3 |
| 20260504004526 | 47 | 203 | 2.0 | 16.0 | 0.00 | 0.13 | 0.13 | 100 | 1003.1 |
| 20260504003005 | 47 | 161 | 0.0 | 5.0 | 0.00 | 0.13 | 0.13 | 100 | 1002.7 |
| 20260504001501 | 47 | 178 | 0.0 | 9.0 | 0.00 | 0.13 | 0.13 | 100 | 1002.7 |
| 20260504000056 | 46 | 157 | 1.0 | 11.0 | 0.00 | 0.13 | 0.13 | 100 | 1002.5 |